Weather History for Lansing, MI

Change the Weather History Date:

Friday, November 29, 2013

  Actual Average Record
Temperature  
Mean Temperature 27 °F 34 °F  
Max Temperature 33 °F 40 °F 65 °F (1998)
Min Temperature 21 °F 28 °F 0 °F (1867)
Degree Days  
Heating Degree Days 38 31  
Month to date heating degree days 815 733  
Since 1 July heating degree days 1417 1383  
Cooling Degree Days 0 0  
Month to date cooling degree days 0 0  
Year to date cooling degree days 661 625  
Moisture  
Dew Point 18 °F    
Average Humidity 72    
Maximum Humidity 92    
Minimum Humidity 51    
Precipitation  
Precipitation T in 0.09 in 1.63 in (2011)
Month to date precipitation 2.13 2.70  
Year to date precipitation 39.58 29.82  
Snow  
Snow T in 0.30 in 7.80 in (2011)
Month to date snowfall 0.7 3.2  
Since 1 July snowfall 0.7 3.6  
Since 1 September snowfall 0.7 3.6  
Snow Depth 0.00 in    
Sea Level Pressure  
Sea Level Pressure 30.59 in    
Wind  
Wind Speed 3 mph (East)    
Max Wind Speed 12 mph    
Max Gust Speed 15 mph    
Visibility 8 miles    
Events      
T = Trace of Precipitation, MM = Missing Value Source: NWS Daily Summary

Daily Weather History Graph

Daily Weather History Graph

Search for Another Location

Airport:

Trip Planner

Search our weather history database for the weather conditions in past years. The results will help you decide how hot, cold, wet, or windy it might be!

Date:

Astronomy

Nov. 29, 2013 Rise Set
Actual Time 7:47 AM EST 5:06 PM EST
Civil Twilight 7:15 AM EST 5:37 PM EST
Nautical Twilight 6:40 AM EST 6:12 PM EST
Astronomical Twilight 6:06 AM EST 6:46 PM EST
Moon 3:47 AM EST (11/29) 2:54 PM EST (11/29)
Length of Visible Light 10h 21m
Length of Day
9h 18m
Waning Crescent, 14% of the Moon is Illuminated
Nov 29
Waning Crescent
Dec 2
New
Dec 9
First Quarter
Dec 17
Full
Dec 25
Last Quarter

Hourly Weather History & Observations

Time (EST) Temp. Windchill Dew Point Humidity Pressure Visibility Wind Dir Wind Speed Gust Speed Precip Events Conditions
12:53 AM 24.1 °F 19.7 °F 18.0 °F 77% 30.45 in 10.0 mi NW 3.5 mph - N/A   Overcast
1:53 AM 24.1 °F 19.7 °F 19.0 °F 81% 30.48 in 7.0 mi NW 3.5 mph - 0.00 in   Overcast
2:53 AM 23.0 °F - 19.0 °F 85% 30.51 in 10.0 mi Calm Calm - 0.00 in   Overcast
3:22 AM 21.2 °F - 19.4 °F 93% 30.48 in 9.0 mi Calm Calm - N/A   Mostly Cloudy
3:53 AM 23.0 °F - 19.9 °F 88% 30.53 in 8.0 mi Calm Calm - N/A   Overcast
4:12 AM 23.0 °F 15.8 °F 19.4 °F 86% 30.49 in 8.0 mi NNW 5.8 mph - N/A   Overcast
4:53 AM 23.0 °F - 19.0 °F 85% 30.54 in 7.0 mi Calm Calm - N/A   Overcast
5:53 AM 21.9 °F 17.2 °F 19.0 °F 89% 30.58 in 7.0 mi NNE 3.5 mph - N/A   Overcast
6:53 AM 21.9 °F - 19.0 °F 89% 30.60 in 6.0 mi Calm Calm - N/A   Overcast
7:53 AM 21.9 °F - 18.0 °F 85% 30.62 in 6.0 mi Calm Calm - N/A   Overcast
8:53 AM 21.9 °F - 18.0 °F 85% 30.65 in 5.0 mi Calm Calm - N/A   Overcast
9:53 AM 21.9 °F 17.2 °F 18.0 °F 85% 30.67 in 5.0 mi Variable 3.5 mph - N/A   Overcast
10:53 AM 23.0 °F - 19.0 °F 85% 30.69 in 5.0 mi Calm Calm - N/A   Overcast
11:53 AM 26.1 °F - 19.9 °F 78% 30.67 in 5.0 mi Calm Calm - N/A   Haze
12:13 PM 26.6 °F 22.6 °F 19.4 °F 74% 30.62 in 6.0 mi Variable 3.5 mph - N/A   Haze
12:53 PM 28.9 °F - 21.0 °F 72% 30.65 in 8.0 mi Calm Calm - N/A   Clear
1:53 PM 32.0 °F - 18.0 °F 56% 30.63 in 10.0 mi Calm Calm - N/A   Clear
2:53 PM 33.1 °F 30.0 °F 17.1 °F 52% 30.63 in 10.0 mi NNE 3.5 mph - N/A   Partly Cloudy
3:53 PM 30.9 °F - 17.1 °F 57% 30.63 in 10.0 mi Calm Calm - N/A   Partly Cloudy
4:53 PM 28.9 °F - 17.1 °F 61% 30.63 in 10.0 mi Calm Calm - N/A   Clear
5:53 PM 27.0 °F - 17.1 °F 66% 30.63 in 10.0 mi Calm Calm - N/A   Scattered Clouds
6:53 PM 26.1 °F 21.9 °F 17.1 °F 69% 30.63 in 10.0 mi East 3.5 mph - N/A   Clear
7:53 PM 26.1 °F 20.5 °F 17.1 °F 69% 30.61 in 10.0 mi ESE 4.6 mph - N/A   Clear
8:53 PM 27.0 °F 19.5 °F 17.1 °F 66% 30.59 in 10.0 mi SE 6.9 mph - N/A   Clear
9:53 PM 27.0 °F 18.0 °F 17.1 °F 66% 30.58 in 10.0 mi SSE 9.2 mph - N/A   Clear
10:53 PM 27.0 °F 17.3 °F 18.0 °F 69% 30.56 in 10.0 mi SE 10.4 mph - N/A   Clear
11:53 PM 26.1 °F 17.6 °F 19.0 °F 75% 30.55 in 10.0 mi SSE 8.1 mph - N/A   Clear